| time (UTC) | temp C | wind direction | speed KPH | gust KPH | rain 1hr cm | rain 24hr cm | rain mn cm | humidity % | barometer mb |
| 20260503021313 | 11 | 127 | 0.0 | 1.6 | 0.00 | 1.70 | 0.00 | 82 | 1013.8 |
| 20260503020313 | 11 | 134 | 0.0 | 0.0 | 0.00 | 1.70 | 0.00 | 82 | 1013.8 |
| 20260503015312 | 11 | 134 | 0.0 | 0.0 | 0.00 | 1.70 | 0.00 | 82 | 1013.8 |
| 20260503014312 | 11 | 134 | 0.0 | 0.0 | 0.00 | 1.70 | 0.00 | 82 | 1013.9 |
| 20260503013312 | 11 | 134 | 0.0 | 0.0 | 0.00 | 1.70 | 0.00 | 82 | 1014.1 |
| 20260503012311 | 11 | 132 | 0.0 | 0.0 | 0.00 | 1.70 | 0.00 | 82 | 1014.2 |
| 20260503011311 | 11 | 134 | 0.0 | 0.0 | 0.00 | 1.70 | 0.00 | 82 | 1014.3 |
| 20260503010313 | 11 | 134 | 0.0 | 0.0 | 0.00 | 1.70 | 0.00 | 82 | 1014.4 |
| 20260503005312 | 11 | 133 | 0.0 | 1.6 | 0.00 | 1.70 | 0.00 | 82 | 1014.6 |
| 20260503004312 | 11 | 132 | 0.0 | 0.0 | 0.00 | 1.70 | 0.00 | 80 | 1014.5 |
| 20260503003312 | 11 | 132 | 0.0 | 0.0 | 0.00 | 1.70 | 0.00 | 80 | 1014.8 |
| 20260503002311 | 11 | 133 | 0.0 | 1.6 | 0.00 | 1.70 | 0.00 | 80 | 1014.7 |
| 20260503001311 | 12 | 132 | 0.0 | 0.0 | 0.00 | 1.70 | 0.00 | 77 | 1014.7 |
| 20260503000311 | 12 | 134 | 0.0 | 0.0 | 0.00 | 1.70 | 0.00 | 78 | 1014.9 |
| 20260502235312 | 12 | 132 | 0.0 | 0.0 | 0.00 | 1.70 | 0.00 | 79 | 1015.0 |
| 20260502234312 | 12 | 134 | 0.0 | 0.0 | 0.00 | 1.70 | 0.00 | 80 | 1015.0 |
| 20260502233311 | 11 | 134 | 0.0 | 0.0 | 0.00 | 1.70 | 0.00 | 79 | 1014.9 |
| 20260502232312 | 12 | 132 | 0.0 | 0.0 | 0.00 | 1.70 | 0.00 | 79 | 1014.9 |
| 20260502231312 | 12 | 134 | 0.0 | 0.0 | 0.00 | 1.70 | 0.00 | 79 | 1015.0 |
| 20260502230312 | 12 | 132 | 0.0 | 0.0 | 0.00 | 1.70 | 0.00 | 79 | 1015.1 |
| 20260502225311 | 11 | 134 | 0.0 | 0.0 | 0.00 | 1.70 | 0.00 | 80 | 1015.2 |
| 20260502224311 | 12 | 134 | 0.0 | 0.0 | 0.00 | 1.70 | 0.00 | 78 | 1014.8 |
| 20260502223311 | 12 | 132 | 0.0 | 0.0 | 0.00 | 1.70 | 0.00 | 78 | 1014.8 |
| 20260502222312 | 12 | 132 | 0.0 | 0.0 | 0.00 | 1.70 | 0.00 | 79 | 1014.7 |
| 20260502221312 | 12 | 134 | 0.0 | 0.0 | 0.00 | 1.70 | 0.00 | 79 | 1014.8 |
| 20260502220312 | 12 | 134 | 0.0 | 0.0 | 0.00 | 1.70 | 1.70 | 79 | 1015.0 |
| 20260502210312 | 12 | 253 | 0.0 | 0.0 | 0.00 | 1.70 | 1.70 | 80 | 1015.2 |
| 20260502205312 | 12 | 253 | 0.0 | 0.0 | 0.00 | 1.70 | 1.70 | 80 | 1015.2 |
| 20260502204312 | 11 | 253 | 0.0 | 3.2 | 0.00 | 1.70 | 1.70 | 81 | 1015.3 |
| 20260502203312 | 11 | 264 | 0.0 | 0.0 | 0.00 | 1.70 | 1.70 | 80 | 1014.9 |
| 20260502202311 | 11 | 266 | 0.0 | 0.0 | 0.00 | 1.70 | 1.70 | 78 | 1014.7 |
| 20260502201311 | 12 | 265 | 0.0 | 0.0 | 0.00 | 1.70 | 1.70 | 80 | 1014.4 |
| 20260502200311 | 12 | 264 | 0.0 | 0.0 | 0.00 | 1.70 | 1.70 | 80 | 1014.4 |
| 20260502195312 | 12 | 265 | 0.0 | 0.0 | 0.00 | 1.70 | 1.70 | 80 | 1014.4 |
| 20260502194311 | 11 | 265 | 0.0 | 3.2 | 0.00 | 1.70 | 1.70 | 83 | 1014.6 |
| 20260502193311 | 11 | 267 | 1.6 | 4.8 | 0.00 | 1.70 | 1.70 | 83 | 1014.8 |
| 20260502192310 | 11 | 230 | 0.0 | 0.0 | 0.05 | 1.70 | 1.70 | 83 | 1014.5 |
| 20260502191310 | 11 | 227 | 0.0 | 0.0 | 0.05 | 1.70 | 1.70 | 84 | 1014.3 |
| 20260502190310 | 11 | 226 | 1.6 | 4.8 | 0.05 | 1.70 | 1.70 | 85 | 1014.1 |
| 20260502185311 | 11 | 219 | 1.6 | 3.2 | 0.05 | 1.70 | 1.70 | 84 | 1013.9 |
| 20260502184310 | 12 | 207 | 0.0 | 1.6 | 0.05 | 1.70 | 1.70 | 85 | 1013.7 |
| 20260502183310 | 11 | 204 | 1.6 | 4.8 | 0.05 | 1.70 | 1.70 | 86 | 1014.0 |
| 20260502182310 | 10 | 232 | 6.4 | 11.3 | 0.00 | 1.65 | 1.65 | 86 | 1014.3 |
| 20260502181312 | 11 | 152 | 3.2 | 8.0 | 0.00 | 1.65 | 1.65 | 82 | 1014.5 |
| 20260502180311 | 12 | 220 | 0.0 | 3.2 | 0.00 | 1.65 | 1.65 | 78 | 1014.2 |
| 20260502164045 | 12 | 154 | 4.8 | 8.0 | 0.00 | 1.60 | 1.60 | 78 | 1014.7 |
| 20260502163045 | 11 | 229 | 6.4 | 12.9 | 0.25 | 1.60 | 1.60 | 82 | 1014.8 |
| 20260502162044 | 10 | 86 | 6.4 | 11.3 | 0.36 | 1.60 | 1.60 | 86 | 1015.0 |
| 20260502161044 | 10 | 217 | 3.2 | 6.4 | 0.36 | 1.60 | 1.60 | 87 | 1015.3 |
| 20260502152045 | 10 | 101 | 12.9 | 16.1 | 0.10 | 0.51 | 1.35 | 89 | 1016.3 |
| 20260502151044 | 11 | 90 | 3.2 | 6.4 | 0.00 | 1.24 | 1.24 | 85 | 1015.8 |
| 20260502122822 | 11 | 216 | 3.2 | 6.4 | 0.20 | 1.09 | 1.09 | 87 | 1018.3 |
| 20260502121821 | 10 | 209 | 3.2 | 4.8 | 0.25 | 1.09 | 1.09 | 84 | 1017.6 |
| 20260502120821 | 11 | 184 | 1.6 | 6.4 | 0.30 | 1.09 | 1.09 | 84 | 1017.4 |
| 20260502115821 | 11 | 146 | 0.0 | 0.0 | 0.30 | 1.04 | 1.04 | 86 | 1018.3 |
| 20260502114823 | 10 | 116 | 1.6 | 3.2 | 0.30 | 0.41 | 1.04 | 87 | 1019.1 |
| 20260502113822 | 10 | 214 | 0.0 | 4.8 | 0.25 | 0.99 | 0.99 | 87 | 1019.5 |
| 20260502112822 | 10 | 209 | 1.6 | 4.8 | 0.20 | 0.94 | 0.94 | 88 | 1019.5 |
| 20260502111822 | 10 | 297 | 3.2 | 8.0 | 0.15 | 0.89 | 0.89 | 88 | 1019.4 |
| 20260502110821 | 10 | 234 | 1.6 | 4.8 | 0.15 | 0.79 | 0.79 | 88 | 1019.5 |
| 20260502105821 | 10 | 215 | 4.8 | 9.7 | 0.15 | 0.76 | 0.76 | 88 | 1019.9 |
| 20260502104823 | 11 | 217 | 0.0 | 1.6 | 0.20 | 0.76 | 0.76 | 85 | 1019.3 |
| 20260502103822 | 11 | 222 | 0.0 | 0.0 | 0.25 | 0.76 | 0.76 | 84 | 1018.9 |
| 20260502102822 | 11 | 223 | 0.0 | 0.0 | 0.71 | 0.76 | 0.76 | 83 | 1018.6 |
| 20260502101822 | 12 | 223 | 0.0 | 0.0 | 0.76 | 0.30 | 0.76 | 86 | 1018.7 |
| 20260502100821 | 10 | 222 | 0.0 | 3.2 | 0.76 | 0.76 | 0.76 | 90 | 1019.3 |
| 20260502090559 | 12 | 159 | 3.2 | 8.0 | 0.00 | 0.00 | 0.00 | 77 | 1018.6 |
| 20260502070558 | 12 | 218 | 0.0 | 1.6 | 0.00 | 0.00 | 0.00 | 77 | 1018.8 |
| 20260502065559 | 12 | 337 | 0.0 | 1.6 | 0.00 | 0.00 | 0.00 | 78 | 1018.7 |
| 20260502064559 | 12 | 359 | 0.0 | 0.0 | 0.00 | 0.00 | 0.00 | 77 | 1018.8 |
| 20260502063558 | 12 | 359 | 0.0 | 3.2 | 0.00 | 0.00 | 0.00 | 77 | 1018.9 |
| 20260502062558 | 12 | 14 | 0.0 | 3.2 | 0.00 | 0.00 | 0.00 | 76 | 1018.7 |
| 20260502061600 | 12 | 281 | 0.0 | 0.0 | 0.00 | 0.00 | 0.00 | 77 | 1018.7 |
| 20260502060557 | 12 | 334 | 0.0 | 1.6 | 0.00 | 0.00 | 0.00 | 77 | 1018.8 |
| 20260502055557 | 12 | 285 | 0.0 | 1.6 | 0.00 | 0.00 | 0.00 | 77 | 1018.8 |
| 20260502054559 | 12 | 281 | 0.0 | 1.6 | 0.00 | 0.00 | 0.00 | 77 | 1018.7 |
| 20260502053558 | 12 | 272 | 0.0 | 4.8 | 0.00 | 0.00 | 0.00 | 77 | 1018.7 |
| 20260502052558 | 12 | 60 | 0.0 | 0.0 | 0.00 | 0.00 | 0.00 | 77 | 1018.8 |
| 20260502051457 | 12 | 62 | 0.0 | 0.0 | 0.00 | 0.00 | 0.00 | 77 | 1018.7 |
| 20260502050457 | 12 | 62 | 0.0 | 0.0 | 0.00 | 0.00 | 0.00 | 77 | 1018.7 |
| 20260502045459 | 12 | 61 | 0.0 | 1.6 | 0.00 | 0.00 | 0.00 | 77 | 1018.7 |
| 20260502044459 | 12 | 45 | 0.0 | 1.6 | 0.00 | 0.00 | 0.00 | 77 | 1018.8 |
| 20260502043458 | 12 | 52 | 0.0 | 3.2 | 0.00 | 0.00 | 0.00 | 76 | 1018.6 |
| 20260502042458 | 12 | 359 | 0.0 | 1.6 | 0.00 | 0.00 | 0.00 | 76 | 1018.6 |
| 20260502041458 | 12 | 359 | 0.0 | 3.2 | 0.00 | 0.00 | 0.00 | 77 | 1018.4 |
| 20260502040457 | 12 | 306 | 0.0 | 0.0 | 0.00 | 0.00 | 0.00 | 77 | 1018.5 |
| 20260502035458 | 12 | 295 | 0.0 | 1.6 | 0.00 | 0.00 | 0.00 | 77 | 1018.6 |
| 20260502034459 | 12 | 281 | 0.0 | 1.6 | 0.00 | 0.00 | 0.00 | 78 | 1018.9 |
| 20260502033459 | 12 | 359 | 0.0 | 0.0 | 0.00 | 0.00 | 0.00 | 77 | 1018.9 |
| 20260502032458 | 12 | 359 | 0.0 | 1.6 | 0.00 | 0.00 | 0.00 | 77 | 1018.7 |
| 20260502031458 | 12 | 359 | 0.0 | 1.6 | 0.00 | 0.00 | 0.00 | 76 | 1018.6 |
| 20260502030458 | 12 | 83 | 0.0 | 1.6 | 0.00 | 0.00 | 0.00 | 76 | 1018.8 |
| 20260502025457 | 12 | 83 | 0.0 | 0.0 | 0.00 | 0.00 | 0.00 | 76 | 1019.0 |
| 20260502024457 | 12 | 21 | 0.0 | 0.0 | 0.00 | 0.00 | 0.00 | 76 | 1018.8 |
| 20260502023459 | 12 | 21 | 0.0 | 0.0 | 0.00 | 0.00 | 0.00 | 76 | 1018.7 |
| 20260502022457 | 12 | 19 | 0.0 | 0.0 | 0.00 | 0.00 | 0.00 | 76 | 1018.9 |